Regional Weather Roundup
Issued by NWS Northern Indiana

Home | Current Version | Previous Version | Graphics & Text | Print | Product List | Glossary On
Versions: 1 2 3 4 5 6 7 8 9 10 11 12 13 14 15 16 17 18 19 20 21 22 23 24 25 26 27 28 29 30 31 32 33 34 35 36 37 38 39 40 41 42 43 44 45 46 47 48 49 50
000
ASUS43 KIWX 251700
RWRIWX

KIWX WEATHER ROUNDUP
NATIONAL WEATHER SERVICE NORTHERN INDIANA
100 PM EDT MON MAY 25 2015

NOTE: "FAIR" INDICATES FEW OR NO CLOUDS BELOW 12,000 FEET WITH NO
SIGNIFICANT WEATHER AND/OR OBSTRUCTIONS TO VISIBILITY.

* THESE STATIONS ARE NOT UNDER NWS QUALITY CONTROL. THEY ALSO MAY NOT
  REPORT WEATHER SUCH AS PRECIPITATION OR FOG.

INZ001>027-251800-
NORTHERN INDIANA

CITY           SKY/WX    TMP DP  RH WIND       PRES   REMARKS
GARY*          PTSUNNY   75  64  69 SW23G38   29.90S
SOUTH BEND     PTSUNNY   79  63  57 SW25G38   29.92F
ELKHART*       PTSUNNY   77  63  61 SW21G35   29.94F
GOSHEN         PTSUNNY   76  64  66 S30G40    29.96S
WARSAW*        CLOUDY    73  64  73 SW12G25   29.98F
ANGOLA*        CLOUDY    72  66  83 SW17      29.99F
FORT WAYNE     CLOUDY    74  64  71 S25G35    30.03R

$$
INZ028>050-251800-
CENTRAL INDIANA

CITY           SKY/WX    TMP DP  RH WIND       PRES   REMARKS
LAFAYETTE      CLOUDY    76  62  62 SW18G29   29.99S
KOKOMO*        CLOUDY    77  64  65 SW22G38   30.03F
MUNCIE*        CLOUDY    72  64  76 SW12G28   30.07S
INDIANAPOLIS   CLOUDY    71  66  84 SW15G22   30.06S

$$
MIZ043>046-050>051-056>058-064>065-071>073-077>080-251800-
SOUTHWEST LOWER MICHIGAN

CITY           SKY/WX    TMP DP  RH WIND       PRES   REMARKS
BATTLE CREEK   LGT RAIN  74  66  76 SW21G32   29.94F
BENTON HARBOR  CLOUDY    70  65  84 W16       29.91R
COLDWATER*     CLOUDY    73  65  75 SW15G29   29.97F
HILLSDALE*     RAIN      69  68  96 SW16G23   30.01R
HOLLAND        PTSUNNY   72  64  76 SW23G44   29.90R
GRAND RAPIDS   PTSUNNY   76  65  68 SW22G33   29.89F
KALAMAZOO      MOSUNNY   77  65  66 SW25G37   29.92S
STURGIS*       CLOUDY    75  66  73 S25G32    29.96S
THREE RIVERS*  FAIR      76  65  66 SW25G32   29.94F

$$
OHZ001>008-015>018-024>025-251800-
NORTHWEST OHIO

CITY           SKY/WX    TMP DP  RH WIND       PRES   REMARKS
DEFIANCE       PTSUNNY   78  62  57 SW18G33   30.01S
FINDLAY        LGT RAIN  76  62  62 SW22G30   30.05S
TOLEDO EXPRESS PTSUNNY   78  61  55 SW20G29   30.01S
TOLEDO METCALF CLOUDY    80  59  48 SW25G37   30.02S
LIMA           CLOUDY    73  63  70 S17G30    30.07R

$$
AND FOR LAKE MICHIGAN COASTAL AND OPEN LAKE BUOY OBSERVATIONS

STATION/POSITION TEMP    WIND        PRES    VSBY  WAVE
                 AIR SEA DIR/SP/G                  HT/PER
                 (F)     (DEG/KT/KT) (MB)    (MI)  (FT/S)
CALUMET HARBOR    69     210/ 11/ 22   N/A
MICHIGAN CITY     73     180/ 22/ 32   N/A
BURNS HARBOR      74     230/ 22/ 29 1012.9S
SAINT JOSEPH      64     200/ 12     1013.9R
SOUTH LAKE BUOY   49 38  190/ 17/ 19 1011.1R         2/ 4
4 MI NW BRIDGMAN  60 54  260/ 10/ 12   N/A           3/ 4
MICHIGAN CITY     61 52  250/ 10/ 17   N/A           3/ 4

$$
&&



USA.gov is the U.S. government's official web portal to all federal, state and local government web resources and services.